Tracking 20475 objects as of 27-Feb-2020
HD Live streaming from Space Station
objects crossing your sky now

SL-8 R/B

Track SL-8 R/B now!
10-day predictions


NORAD ID: 13003
Int'l Code: 1981-120G
Perigee: 1,659.0 km
Apogee: 1,793.5 km
Inclination: 82.9 °
Period: 120.9 minutes
Semi major axis: 8097 km
RCS: 6.3263 m2 (large)
Launch date: December 17, 1981
Source: Commonwealth of Independent States (former USSR) (CIS)
Launch site: PLESETSK MISSILE AND SPACE COMPLEX (PKMTR)

Note: This is a ROCKET BODY
aabbcc
Your satellite tracking list
Your tracking list is empty




NASA's NSSDC Master Catalog

Two Line Element Set (TLE):
1 13003U 81120G   20057.04788913 -.00000067  00000-0 -10457-2 0  9997
2 13003  82.9499  90.7127 0083058 114.4530 272.8307 11.91505261661304
Source of the keplerian elements: AFSPC